Stations météo

Publicité
Ajaccio, France (7761): Température de l'air & dewpoint: 25.04.2017 04:00:00 - 01.05.2017 04:00:00 (CEST)Ajaccio, France (7761): Température de l'air 5cm: 25.04.2017 04:00:00 - 01.05.2017 04:00:00 (CEST)Ajaccio, France (7761): Température de l'air -20cm & Température de l'air -100cm: 25.04.2017 04:00:00 - 01.05.2017 04:00:00 (CEST)Ajaccio, France (7761): Vitesse du vent & gusts: 25.04.2017 04:00:00 - 01.05.2017 04:00:00 (CEST)Ajaccio, France (7761): Direction du vent: 25.04.2017 04:00:00 - 01.05.2017 04:00:00 (CEST)Ajaccio, France (7761): reduced air pressure: 25.04.2017 04:00:00 - 01.05.2017 04:00:00 (CEST)Ajaccio, France (7761): visibility: 25.04.2017 04:00:00 - 01.05.2017 04:00:00 (CEST)Ajaccio, France (7761): Ensoleillement: 25.04.2017 04:00:00 - 01.05.2017 04:00:00 (CEST)Ajaccio, France (7761): Quantités de précipitations: 25.04.2017 04:00:00 - 01.05.2017 04:00:00 (CEST)
Date & Time tt [°C] td [°C] tt 5cm [°C] tt -20cm [°C] tt -100cm [°C] ff [km/h] ff [knt] fx [km/h] fx [knt] dd ppp [hPa] vv [km] sd [min] rr [mm]
01.05.2017 04:00:00 8,9 5,6 - - - 11 6 16 9 NNE 1014,3 60 - 0,0
01.05.2017 03:00:00 8,4 5,7 7,6 21,6 19,0 9 5 14 8 NE 1014,8 56 0 0,0
01.05.2017 02:00:00 9,4 6,1 8,5 21,7 18,9 9 5 15 8 NE 1014,7 54 0 0,0
01.05.2017 01:00:00 10,6 6,5 9,6 21,9 19,0 8 5 13 7 NE 1015,0 55 0 0,0
01.05.2017 00:00:00 11,2 6,9 10,3 21,9 18,9 10 5 14 8 NE 1014,6 53 0 0,0
30.04.2017 23:00:00 11,5 7,6 10,6 22,0 18,9 9 5 14 8 ENE 1014,6 25 0 0,0
30.04.2017 22:00:00 13,7 9,3 12,0 21,9 19,0 2 1 8 4 NE 1014,7 50 0 0,0
30.04.2017 21:00:00 15,1 10,3 13,8 21,7 19,0 7 4 21 11 SSW 1014,0 60 0 0,0
30.04.2017 20:00:00 16,1 10,4 15,9 21,4 18,9 18 10 23 12 SSW 1013,6 59 28 0,0
30.04.2017 19:00:00 18,2 10,8 20,4 21,1 18,9 15 8 19 11 SW 1013,2 46 60 0,0
30.04.2017 18:00:00 19,6 6,3 22,4 20,7 18,9 12 6 16 9 SSW 1013,3 40 60 0,0
30.04.2017 17:00:00 19,1 7,5 23,2 20,3 18,9 10 6 26 14 SW 1014,0 40 60 0,0
30.04.2017 16:00:00 20,0 10,1 25,2 19,9 18,9 18 10 28 15 SW 1014,2 40 60 0,0
30.04.2017 15:00:00 19,1 10,1 27,2 19,6 18,9 22 12 29 16 SSW 1014,3 40 60 0,0
30.04.2017 14:00:00 18,8 8,7 27,9 19,3 18,9 21 12 27 15 SW 1014,4 40 60 0,0
30.04.2017 13:00:00 18,6 9,4 28,3 19,2 18,9 18 10 26 14 SW 1014,8 40 60 0,0
30.04.2017 12:00:00 18,3 10,1 27,7 19,2 18,9 18 10 24 13 SW 1015,3 40 60 0,0
30.04.2017 11:00:00 17,4 6,6 26,8 19,3 18,9 12 7 16 9 SW 1015,5 60 60 0,0
30.04.2017 10:00:00 16,2 6,6 20,8 19,5 18,9 7 4 12 6 WSW 1015,4 40 60 0,0
30.04.2017 09:00:00 14,6 6,7 13,7 19,7 18,9 6 4 12 6 NNE 1015,4 40 60 0,0
30.04.2017 08:00:00 10,3 5,3 7,0 19,9 18,9 8 5 18 10 NE 1015,6 52 60 0,0
30.04.2017 07:00:00 7,5 4,3 5,8 20,2 19,0 11 6 21 11 NE 1015,4 40 13 0,0
30.04.2017 06:00:00 6,6 3,9 5,7 20,4 18,9 11 6 16 9 NE 1015,3 40 0 0,0
30.04.2017 05:00:00 7,5 4,8 6,4 20,7 18,9 10 6 18 10 NE 1015,1 53 0 0,0
30.04.2017 04:00:00 7,4 4,7 6,5 20,9 19,0 12 6 19 10 NE 1015,2 36 0 0,0
30.04.2017 03:00:00 8,4 5,3 6,7 21,1 18,9 11 6 16 9 NE 1015,2 41 0 0,0
30.04.2017 02:00:00 8,4 5,3 7,1 21,3 19,0 8 4 15 8 ENE 1015,5 14 0 0,0
30.04.2017 01:00:00 9,1 5,8 7,6 21,4 19,0 9 5 15 8 NE 1015,4 23 0 0,0
30.04.2017 00:00:00 9,1 5,5 8,0 21,5 19,0 6 4 11 6 NE 1015,6 8 0 0,0
29.04.2017 23:00:00 10,5 5,5 9,1 21,5 19,0 8 5 11 6 ENE 1015,5 9 0 0,0
29.04.2017 22:00:00 12,8 5,2 11,5 21,4 18,9 7 4 14 7 NE 1015,3 41 0 0,0
29.04.2017 21:00:00 14,7 6,5 13,8 21,2 19,0 8 5 13 7 NE 1014,6 57 0 0,0
29.04.2017 20:00:00 16,1 6,5 15,8 20,9 18,9 8 4 15 8 NNE 1014,6 60 43 0,0
29.04.2017 19:00:00 17,6 3,8 18,9 20,6 19,0 11 6 22 12 NW 1014,6 60 60 0,0
29.04.2017 18:00:00 18,8 3,8 20,2 20,1 19,0 11 6 23 12 NNW 1014,7 40 60 0,0
29.04.2017 17:00:00 18,7 5,2 22,3 19,7 19,0 15 8 24 13 SW 1014,6 30 60 0,0
29.04.2017 16:00:00 19,0 7,4 23,4 19,3 18,9 16 9 26 14 SW 1015,0 28 60 0,0
29.04.2017 15:00:00 18,3 7,7 27,0 19,0 19,0 18 10 32 17 SW 1015,5 40 60 0,0
29.04.2017 14:00:00 18,1 7,5 26,6 18,7 19,0 18 10 32 18 SW 1015,4 31 60 0,0
29.04.2017 13:00:00 17,6 6,8 26,5 18,6 18,9 22 12 30 16 SW 1015,7 30 60 0,0
29.04.2017 12:00:00 17,2 5,8 26,7 18,6 18,9 16 8 24 13 WSW 1015,7 30 60 0,0
29.04.2017 11:00:00 16,2 2,6 25,1 18,7 18,9 9 5 16 9 WSW 1015,8 60 60 0,0
29.04.2017 10:00:00 16,2 1,9 18,7 18,9 18,9 4 2 11 6 - 1015,7 10 60 0,0
29.04.2017 09:00:00 12,3 3,8 11,1 19,2 18,9 8 4 14 7 NNE 1015,5 30 60 0,0
29.04.2017 08:00:00 8,0 2,9 4,5 19,4 18,9 10 5 21 12 NE 1015,1 30 60 0,0
29.04.2017 07:00:00 5,0 1,8 3,7 19,7 19,0 13 7 23 13 NE 1014,7 30 12 0,0
29.04.2017 06:00:00 5,3 1,8 4,3 19,9 19,0 13 7 22 12 NNE 1014,1 30 0 0,0
29.04.2017 05:00:00 5,8 2,3 4,9 20,2 18,9 13 7 20 11 NNE 1013,8 52 0 0,0
29.04.2017 04:00:00 6,7 3,1 5,2 20,4 19,0 13 7 19 11 NE 1014,0 53 0 0,0
29.04.2017 03:00:00 7,1 3,5 5,7 20,7 18,9 11 6 18 10 NE 1014,2 45 0 0,0
29.04.2017 02:00:00 7,5 3,9 6,4 20,9 19,0 14 8 25 14 NNE 1014,4 40 0 0,0
29.04.2017 01:00:00 9,0 4,0 7,4 21,0 19,0 8 5 16 9 NE 1014,5 35 0 0,0
29.04.2017 00:00:00 8,5 4,7 7,7 21,2 19,0 10 5 15 8 NE 1014,7 20 0 0,0
28.04.2017 23:00:00 8,8 5,2 7,8 21,3 19,0 9 5 16 9 NE 1014,4 17 0 0,0
28.04.2017 22:00:00 10,0 4,8 8,5 21,3 19,0 10 5 15 8 E 1014,1 41 0 0,0
28.04.2017 21:00:00 11,0 4,9 9,5 21,2 18,9 8 4 16 9 ESE 1013,7 37 0 0,0
28.04.2017 20:00:00 12,9 4,8 12,5 21,0 18,9 11 6 18 10 S 1013,0 32 28 0,0
28.04.2017 19:00:00 14,0 5,6 15,2 20,7 18,9 16 9 24 13 SW 1012,9 19 45 0,0
28.04.2017 18:00:00 14,8 5,3 18,1 20,4 18,9 14 8 22 12 SW 1012,5 19 47 0,0
28.04.2017 17:00:00 14,8 5,0 18,9 20,1 18,9 16 9 29 16 SW 1012,9 20 40 0,0
28.04.2017 16:00:00 15,6 4,9 19,8 19,7 18,9 20 11 32 17 WSW 1013,1 20 56 0,0
28.04.2017 15:00:00 15,6 5,2 20,8 19,5 18,9 22 12 34 18 WSW 1013,6 30 47 0,0
28.04.2017 14:00:00 15,4 3,5 20,6 19,2 18,9 20 11 38 21 W 1013,5 30 60 0,0
28.04.2017 13:00:00 14,6 4,8 17,3 19,2 18,9 23 12 41 22 W 1013,8 30 56 0,0
28.04.2017 12:00:00 14,8 4,8 19,8 19,2 18,9 27 15 40 22 W 1014,0 30 57 0,0
28.04.2017 11:00:00 14,7 5,2 16,1 19,3 18,9 24 13 41 22 W 1013,3 30 57 0,0
28.04.2017 10:00:00 13,7 5,1 15,6 19,4 18,9 20 11 39 21 W 1013,3 30 51 0,0
28.04.2017 09:00:00 13,4 4,5 13,2 19,6 18,9 22 12 40 22 W 1012,9 30 49 0,0
28.04.2017 08:00:00 12,6 5,0 11,0 19,8 18,9 20 11 33 18 W 1012,7 19 46 0,0
28.04.2017 07:00:00 11,5 4,0 10,0 20,0 18,9 15 8 31 17 WNW 1012,6 30 0 0,0
28.04.2017 06:00:00 11,7 4,7 9,1 20,1 18,9 14 7 25 13 W 1012,2 49 0 0,0
28.04.2017 05:00:00 11,5 4,2 8,6 20,3 18,9 11 6 21 12 NW 1012,0 51 0 0,0
28.04.2017 04:00:00 10,8 5,7 9,0 20,5 18,8 6 3 14 8 N 1012,1 47 0 0,0
28.04.2017 03:00:00 10,7 9,1 10,2 20,6 18,8 4 2 7 4 NE 1012,2 21 0 0,0
28.04.2017 02:00:00 11,3 10,0 10,8 20,8 18,8 5 3 8 5 ENE 1012,3 14 0 0,0
28.04.2017 01:00:00 11,5 10,2 10,7 20,9 18,8 2 1 8 4 ENE 1012,6 10 0 0,0
28.04.2017 00:00:00 11,7 10,4 11,2 21,1 18,8 3 1 6 3 NE 1012,4 15 0 0,0
27.04.2017 23:00:00 11,7 10,4 10,9 21,2 18,8 3 1 6 3 ENE 1011,8 22 0 0,0
27.04.2017 22:00:00 12,0 10,2 10,8 21,3 18,8 4 2 7 4 E 1011,7 4,7 0 0,4
27.04.2017 21:00:00 11,8 9,9 10,8 21,4 18,8 6 3 10 6 NE 1010,8 14 0 1,0
27.04.2017 20:00:00 12,3 10,5 11,4 21,5 18,8 3 2 29 16 NNE 1010,0 2,2 0 3,8
27.04.2017 19:00:00 13,0 10,5 12,0 21,5 18,8 16 9 26 14 NW 1009,6 19 0 0,4
27.04.2017 18:00:00 14,6 11,6 13,8 21,5 18,8 8 5 16 9 WNW 1009,4 15 0 0,2
27.04.2017 17:00:00 15,7 11,9 14,8 21,4 18,8 10 5 14 8 SW 1009,2 15 0 0,0
27.04.2017 16:00:00 16,1 12,5 16,3 21,3 18,7 5 3 11 6 SSW 1009,4 15 0 0,0
27.04.2017 15:00:00 16,3 12,3 15,4 21,2 18,7 4 2 21 12 WSW 1009,9 15 0 0,0
27.04.2017 14:00:00 17,1 12,4 18,9 21,2 18,7 12 6 25 14 WSW 1009,9 30 0 0,0
27.04.2017 13:00:00 17,5 12,6 21,2 21,2 18,7 18 10 24 13 WSW 1009,7 20 0 0,0
27.04.2017 12:00:00 18,6 13,2 22,0 21,2 18,7 14 8 18 10 WSW 1009,6 20 16 0,0
27.04.2017 11:00:00 17,3 13,0 19,9 21,2 18,7 8 4 13 7 WSW 1009,9 25 0 0,0
27.04.2017 10:00:00 17,2 13,1 19,3 21,3 18,7 9 5 13 7 SSW 1009,7 25 0 0,0
27.04.2017 09:00:00 16,8 12,9 17,0 21,5 18,7 5 3 9 5 WSW 1009,5 20 7 0,0
27.04.2017 08:00:00 16,1 12,8 15,6 21,6 18,7 0 0 11 6 N 1009,7 20 0 0,0
27.04.2017 07:00:00 15,6 12,7 15,5 21,7 18,7 7 4 22 12 SW 1009,8 20 0 0,0
27.04.2017 06:00:00 15,7 12,8 15,2 21,8 18,6 9 5 20 11 SSW 1009,4 20 0 0,0
27.04.2017 05:00:00 15,6 12,2 14,8 21,9 18,6 0 0 8 5 N 1009,3 20 0 0,0
27.04.2017 04:00:00 14,8 12,7 14,3 22,1 18,7 4 2 10 5 NNE 1009,3 14 0 0,0
27.04.2017 03:00:00 14,7 12,9 14,2 22,2 18,7 5 3 7 4 ENE 1009,0 8 0 0,0
27.04.2017 02:00:00 15,1 13,1 14,4 22,3 18,6 3 1 8 4 E 1009,4 7 0 0,0
27.04.2017 01:00:00 15,8 13,6 15,1 22,4 18,6 5 3 10 5 ENE 1009,4 7 0 0,0
27.04.2017 00:00:00 16,4 14,2 15,6 22,4 18,6 6 4 10 5 NE 1009,6 9 0 0,0
26.04.2017 23:00:00 17,0 15,0 15,9 22,4 18,6 4 2 16 9 SW 1010,1 11 0 0,0
26.04.2017 22:00:00 17,2 15,0 16,3 22,4 18,6 8 5 14 7 WSW 1009,6 11 0 0,0
26.04.2017 21:00:00 17,4 14,5 16,8 22,3 18,6 0 0 10 5 N 1008,5 13 0 0,0
26.04.2017 20:00:00 17,9 14,6 17,8 22,1 18,6 8 4 15 8 SSW 1008,2 14 0 0,0
26.04.2017 19:00:00 19,2 13,4 20,2 21,8 18,6 6 3 13 7 WSW 1007,8 18 0 0,0
26.04.2017 18:00:00 19,5 13,0 22,4 21,5 18,6 5 3 11 6 W 1008,1 20 0 0,0
26.04.2017 17:00:00 19,7 13,4 23,9 21,1 18,6 9 5 21 12 SW 1008,7 20 8 0,0
26.04.2017 16:00:00 20,5 12,5 26,3 20,8 18,6 10 6 21 12 WSW 1008,9 30 48 0,0
26.04.2017 15:00:00 21,6 12,7 28,4 20,5 18,5 13 7 19 10 WSW 1008,7 30 60 0,0
26.04.2017 14:00:00 21,3 12,2 28,8 20,4 18,5 12 7 22 12 WSW 1008,6 30 55 0,0
26.04.2017 13:00:00 21,8 12,6 29,3 20,3 18,5 14 7 20 11 WSW 1009,1 30 60 0,0
26.04.2017 12:00:00 20,6 11,2 26,8 20,3 18,5 8 4 13 7 W 1008,7 20 51 0,0
26.04.2017 11:00:00 19,7 10,9 23,3 20,4 18,5 8 5 16 9 W 1009,3 20 16 0,0
26.04.2017 10:00:00 19,7 10,9 21,5 20,5 18,5 9 5 13 7 WSW 1009,3 20 51 0,0
26.04.2017 09:00:00 16,8 10,9 14,9 20,7 18,5 7 4 11 6 ENE 1009,0 24 2 0,0
26.04.2017 08:00:00 14,2 9,4 12,9 20,9 18,5 6 3 15 8 NNE 1009,4 24 0 0,0
26.04.2017 07:00:00 13,2 8,3 11,9 21,0 18,5 7 4 16 9 ENE 1008,8 30 0 0,0
26.04.2017 06:00:00 13,4 7,4 11,2 21,2 18,5 9 5 17 9 ENE 1008,5 30 0 0,0
26.04.2017 05:00:00 12,2 7,7 11,2 21,4 18,5 9 5 16 9 ENE 1008,9 10 0 0,0
26.04.2017 04:00:00 12,5 8,0 11,8 21,6 18,5 9 5 14 7 NE 1009,5 45 0 0,0
26.04.2017 03:00:00 12,2 7,9 11,6 21,7 18,5 3 2 11 6 NE 1009,6 46 0 0,0
26.04.2017 02:00:00 12,0 7,9 10,8 21,9 18,5 10 5 18 10 NE 1010,0 41 0 0,0
26.04.2017 01:00:00 12,0 7,9 10,5 21,9 18,4 10 5 16 9 NE 1010,4 37 0 0,0
26.04.2017 00:00:00 11,6 7,7 10,6 22,1 18,5 8 4 15 8 NE 1011,0 21 0 0,0
25.04.2017 23:00:00 12,5 8,4 11,1 22,1 18,4 8 5 12 7 NE 1011,1 13 0 0,0
25.04.2017 22:00:00 13,7 9,5 12,5 22,0 18,4 5 3 7 4 ENE 1011,3 34 0 0,0
25.04.2017 21:00:00 15,6 11,8 13,9 21,8 18,4 6 3 13 7 SE 1011,3 30 0 0,0
25.04.2017 20:00:00 17,7 12,8 17,1 21,5 18,4 9 5 16 9 SW 1011,0 18 46 0,0
25.04.2017 19:00:00 19,2 13,1 21,9 21,2 18,4 12 7 18 10 SW 1011,1 42 60 0,0
25.04.2017 18:00:00 19,9 12,6 22,1 20,8 18,4 15 8 22 12 SSW 1011,5 30 60 0,0
25.04.2017 17:00:00 20,7 11,1 23,4 20,4 18,4 13 7 23 12 S 1011,9 30 60 0,0
25.04.2017 16:00:00 20,8 12,2 24,2 20,0 18,4 15 8 25 13 S 1012,4 10 60 0,0
25.04.2017 15:00:00 21,6 12,2 28,2 19,8 18,4 13 7 19 10 SSW 1012,7 30 60 0,0
25.04.2017 14:00:00 21,0 9,9 29,2 19,5 18,4 11 6 27 15 SW 1013,5 30 60 0,0
25.04.2017 13:00:00 19,6 11,6 28,9 19,4 18,4 18 10 24 13 WSW 1013,9 30 60 0,0
25.04.2017 12:00:00 19,0 10,5 29,0 19,5 18,4 16 9 22 12 SW 1014,3 30 60 0,0
25.04.2017 11:00:00 18,6 7,4 28,4 19,6 18,4 12 7 16 9 SW 1014,5 30 60 0,0
25.04.2017 10:00:00 18,5 6,0 22,4 19,8 18,4 6 3 8 5 WSW 1014,8 30 60 0,0
25.04.2017 09:00:00 15,6 6,3 13,6 19,9 18,3 3 2 12 6 NNE 1015,3 30 60 0,0
25.04.2017 08:00:00 10,6 5,4 7,8 20,2 18,4 9 5 18 10 NE 1015,2 53 60 0,0
25.04.2017 07:00:00 7,9 4,8 6,0 20,4 18,4 14 8 19 10 NE 1015,1 30 7 0,0
25.04.2017 06:00:00 7,6 5,1 6,2 20,6 18,3 10 5 19 10 NE 1015,1 30 0 0,0
25.04.2017 05:00:00 7,2 4,8 6,4 20,8 18,4 13 7 16 8 NE 1015,0 46 0 0,0
25.04.2017 04:00:00 8,4 5,7 6,8 21,0 18,4 12 6 16 8 NE 1015,5 49 0 0,0

tt = Température de l'air
td = dewpoint
tt 5cm = Température de l'air 5cm
tt -20cm = Température de l'air -20cm
tt -100cm = Température de l'air -100cm
ff = Vitesse du vent
fx = gusts
dd = Direction du vent
ppp = reduced air pressure
vv = visibility
sd = Ensoleillement
rr = Quantités de précipitations

stations d'obs. à proximité